User: anonymous   Login
Location: Acheville
(50.3840°N, 2.8827°E)
Time: 07:45:44
(UTC+00:00)
Language:

CSL-04 Debris - Orbit

View from above orbital plane
View from above orbital plane
View from above satellite
View from above satellite

Ground track
Ground track

The orbit data is extracted from the following two-line orbital elements,

1 25733U 99025D   22016.82828070  .00000231  00000-0  13843-3 0  9999
2 25733  98.8867  57.1712 0015740 116.3610 243.9183 14.16542428171574
Epoch (UTC): 16 January 2022 19:52:43
Eccentricity: 0.0015740
inclination: 98.8867°
perigee height: 826 km
apogee height: 848 km
right ascension of ascending node: 57.1712°
argument of perigee: 116.3610°
revolutions per day: 14.16542428
mean anomaly at epoch: 243.9183°
orbit number at epoch: 17157

The dashed part of the orbit path shows where the satellite is in the earth's shadow,  

DLR